Omaha Offutt, NE

6:01 AM CDT on July 22, 2017 (GMT -0500)
Offutt Air Force Base

Weather History for KOFF - November, 2012

Change the Weather History Date:

Thursday, November 8, 2012

  Actual Average Record
Temperature  
Mean Temperature 51 °F -  
Max Temperature 66 °F 50 °F 131 °F (1999)
Min Temperature 36 °F 32 °F 17 °F (2003)
Degree Days  
Heating Degree Days 14    
Growing Degree Days 1 (Base 50)    
Moisture  
Dew Point 36 °F    
Average Humidity 66    
Maximum Humidity 87    
Minimum Humidity 35    
Precipitation  
Precipitation 0.00 in - - ()
Sea Level Pressure  
Sea Level Pressure 29.94 in    
Wind  
Wind Speed 8 mph (SE)    
Max Wind Speed 14 mph    
Max Gust Speed -    
Visibility 10 miles    
Events      
Averages and records for this station are not official NWS values.
T = Trace of Precipitation, MM = Missing Value Source: NWS Daily Summary

Daily Weather History Graph

Daily Weather History Graph

Search for Another Location

Airport or City:

Trip Planner

Search our weather history database for the weather conditions in past years. The results will help you decide how hot, cold, wet, or windy it might be!

Date:

Astronomy

Nov. 08, 2012 Rise Set
Actual Time 7:03 AM CST 5:10 PM CST
Civil Twilight 6:34 AM CST 5:39 PM CST
Nautical Twilight 6:01 AM CST 6:12 PM CST
Astronomical Twilight 5:29 AM CST 6:45 PM CST
Moon 12:56 AM CST (11/8) 1:55 PM CST (11/8)
Length of Visible Light 11h 05m
Length of Day
10h 07m
Waning Crescent, 32% of the Moon is Illuminated
Nov 8
Waning Crescent
Nov 13
New
Nov 20
First Quarter
Nov 28
Full
Dec 6
Last Quarter

Hourly Weather History & Observations

Time (CST) Temp. Windchill Dew Point Humidity Pressure Visibility Wind Dir Wind Speed Gust Speed Precip Events Conditions
12:55 AM 36.0 °F 30.3 °F 30.2 °F 80% 30.04 in 10.0 mi ESE 6.9 mph - N/A   Clear
1:55 AM 37.0 °F 31.0 °F 31.6 °F 81% 30.02 in 10.0 mi ESE 8.1 mph - N/A   Clear
2:55 AM 37.2 °F 30.0 °F 31.6 °F 80% 30.02 in 10.0 mi ESE 10.4 mph - N/A   Clear
3:55 AM 37.6 °F 30.0 °F 31.8 °F 80% 30.00 in 10.0 mi SE 11.5 mph - N/A   Clear
4:55 AM 39.0 °F 32.3 °F 32.5 °F 78% 29.99 in 10.0 mi SE 10.4 mph - N/A   Clear
5:55 AM 39.4 °F 33.2 °F 32.9 °F 78% 29.99 in 10.0 mi ESE 9.2 mph - N/A   Clear
6:55 AM 39.0 °F 32.3 °F 32.9 °F 79% 29.98 in 10.0 mi SE 10.4 mph - N/A   Clear
7:55 AM 40.3 °F 34.9 °F 33.6 °F 77% 29.99 in 10.0 mi ESE 8.1 mph - N/A   Clear
8:55 AM 45.5 °F 40.3 °F 34.9 °F 66% 29.99 in 10.0 mi SE 10.4 mph - N/A   Clear
9:55 AM 50.2 °F - 35.1 °F 56% 29.98 in 10.0 mi SSE 8.1 mph - N/A   Clear
10:55 AM 55.4 °F - 36.3 °F 49% 29.96 in 10.0 mi South 13.8 mph - N/A   Clear
11:55 AM 59.7 °F - 35.8 °F 41% 29.92 in 10.0 mi SSE 9.2 mph - N/A   Clear
12:55 PM 63.3 °F - 36.1 °F 36% 29.88 in 10.0 mi South 10.4 mph - N/A   Clear
1:55 PM 65.5 °F - 37.4 °F 35% 29.86 in 10.0 mi South 12.7 mph - N/A   Clear
2:55 PM 66.6 °F - 38.5 °F 36% 29.85 in 10.0 mi South 9.2 mph - N/A   Clear
3:55 PM 65.7 °F - 39.4 °F 38% 29.85 in 10.0 mi SSE 5.8 mph - N/A   Clear
4:55 PM 58.1 °F - 42.6 °F 56% 29.87 in 10.0 mi Calm Calm - N/A   Clear
5:55 PM 47.7 °F - 39.2 °F 72% 29.88 in 10.0 mi East 4.6 mph - N/A   Clear
8:55 PM 41.0 °F 37.1 °F 37.4 °F 87% 29.89 in 10.0 mi East 5.8 mph - N/A   Clear
9:55 PM 42.8 °F 38.6 °F 37.4 °F 81% 29.88 in 10.0 mi East 6.9 mph - N/A   Clear
10:55 PM 41.0 °F 38.0 °F 37.4 °F 87% 29.87 in 10.0 mi ESE 4.6 mph - N/A   Clear
11:55 PM 41.5 °F 37.1 °F 37.0 °F 84% 29.87 in 10.0 mi East 6.9 mph - N/A   Clear